| time (UTC) | temp C | wind direction | speed KPH | gust KPH | rain 1hr cm | rain 24hr cm | rain mn cm | humidity % | barometer mb |
| 20260902234553 | 16 | 267 | 6.4 | 27.4 | 0.15 | 0.18 | 0.18 | 64 | 1006.6 |
| 20260902233102 | 15 | 241 | 22.5 | 38.6 | 0.15 | 0.15 | 0.15 | 66 | 1007.4 |
| 20260902231605 | 14 | 210 | 14.5 | 37.0 | 0.13 | 0.13 | 0.13 | 75 | 1006.7 |
| 20260902230055 | 13 | 228 | 33.8 | 51.5 | 0.08 | 0.08 | 0.08 | 77 | 1006.5 |
| 20260902224603 | 14 | 221 | 49.9 | 74.0 | 0.03 | 0.03 | 0.03 | 75 | 1005.6 |
| 20260902223057 | 25 | 106 | 14.5 | 32.2 | 0.00 | 0.00 | 0.00 | 28 | 1002.3 |
| 20260902221554 | 26 | 157 | 9.7 | 14.5 | 0.00 | 0.00 | 0.00 | 29 | 1002.1 |
| 20260902220104 | 27 | 157 | 6.4 | 14.5 | 0.00 | 0.00 | 0.00 | 29 | 1002.6 |
| 20260902214602 | 27 | 157 | 12.9 | 19.3 | 0.00 | 0.00 | 0.00 | 28 | 1002.8 |
| 20260902213105 | 27 | 149 | 1.6 | 16.1 | 0.00 | 0.00 | 0.00 | 28 | 1002.9 |
| 20260902211555 | 28 | 186 | 8.0 | 20.9 | 0.00 | 0.00 | 0.00 | 27 | 1003.0 |
| 20260902210056 | 27 | 195 | 9.7 | 20.9 | 0.00 | 0.00 | 0.00 | 29 | 1003.4 |
| 20260902204554 | 27 | 143 | 11.3 | 20.9 | 0.00 | 0.00 | 0.00 | 29 | 1003.9 |
| 20260902203055 | 26 | 207 | 12.9 | 27.4 | 0.00 | 0.00 | 0.00 | 30 | 1004.3 |
| 20260902201558 | 26 | 206 | 14.5 | 27.4 | 0.00 | 0.00 | 0.00 | 30 | 1004.5 |
| 20260902200107 | 26 | 206 | 14.5 | 22.5 | 0.00 | 0.00 | 0.00 | 31 | 1004.5 |
| 20260902194558 | 26 | 180 | 17.7 | 27.4 | 0.00 | 0.00 | 0.00 | 30 | 1004.7 |
| 20260902193058 | 26 | 189 | 14.5 | 22.5 | 0.00 | 0.00 | 0.00 | 33 | 1004.9 |
| 20260902191556 | 25 | 175 | 8.0 | 19.3 | 0.00 | 0.00 | 0.00 | 34 | 1004.9 |
| 20260902190055 | 24 | 200 | 12.9 | 20.9 | 0.00 | 0.00 | 0.00 | 35 | 1005.3 |
| 20260902184601 | 24 | 192 | 9.7 | 19.3 | 0.00 | 0.00 | 0.00 | 36 | 1005.5 |
| 20260902183100 | 24 | 199 | 14.5 | 24.1 | 0.00 | 0.00 | 0.00 | 36 | 1005.7 |
| 20260902181552 | 24 | 214 | 12.9 | 27.4 | 0.00 | 0.00 | 0.00 | 38 | 1005.8 |
| 20260902180130 | 23 | 199 | 16.1 | 29.0 | 0.00 | 0.00 | 0.00 | 41 | 1006.0 |
| 20260902174557 | 23 | 222 | 16.1 | 24.1 | 0.00 | 0.00 | 0.00 | 43 | 1006.1 |
| 20260902173054 | 22 | 192 | 16.1 | 25.7 | 0.00 | 0.00 | 0.00 | 45 | 1006.4 |
| 20260902171556 | 21 | 179 | 12.9 | 17.7 | 0.00 | 0.00 | 0.00 | 47 | 1006.3 |
| 20260902170056 | 21 | 207 | 11.3 | 20.9 | 0.00 | 0.00 | 0.00 | 48 | 1006.2 |
| 20260902164554 | 21 | 201 | 14.5 | 22.5 | 0.00 | 0.00 | 0.00 | 48 | 1006.2 |
| 20260902163106 | 20 | 192 | 12.9 | 19.3 | 0.00 | 0.00 | 0.00 | 48 | 1006.2 |
| 20260902161601 | 20 | 198 | 11.3 | 17.7 | 0.00 | 0.00 | 0.00 | 48 | 1006.1 |
| 20260902160112 | 20 | 209 | 16.1 | 20.9 | 0.00 | 0.00 | 0.00 | 48 | 1006.2 |
| 20260902154555 | 20 | 204 | 11.3 | 19.3 | 0.00 | 0.00 | 0.00 | 49 | 1006.4 |
| 20260902153057 | 20 | 220 | 9.7 | 17.7 | 0.00 | 0.00 | 0.00 | 49 | 1006.5 |
| 20260902151554 | 18 | 223 | 6.4 | 12.9 | 0.00 | 0.00 | 0.00 | 51 | 1006.7 |
| 20260902150104 | 18 | 240 | 0.0 | 8.0 | 0.00 | 0.00 | 0.00 | 52 | 1007.0 |
| 20260902144600 | 16 | 0 | 0.0 | 0.0 | 0.00 | 0.00 | 0.00 | 56 | 1007.2 |
| 20260902143107 | 15 | 0 | 0.0 | 0.0 | 0.00 | 0.00 | 0.00 | 60 | 1007.2 |
| 20260902141557 | 15 | 0 | 0.0 | 0.0 | 0.00 | 0.00 | 0.00 | 59 | 1007.5 |
| 20260902140059 | 14 | 0 | 0.0 | 0.0 | 0.00 | 0.00 | 0.00 | 61 | 1007.5 |
| 20260902134606 | 13 | 0 | 0.0 | 0.0 | 0.00 | 0.00 | 0.00 | 63 | 1007.5 |
| 20260902133101 | 13 | 0 | 0.0 | 1.6 | 0.00 | 0.00 | 0.00 | 63 | 1007.4 |
| 20260902131551 | 12 | 0 | 0.0 | 0.0 | 0.00 | 0.00 | 0.00 | 65 | 1007.1 |
| 20260902130104 | 12 | 0 | 0.0 | 0.0 | 0.00 | 0.00 | 0.00 | 65 | 1007.1 |
| 20260902124555 | 12 | 0 | 0.0 | 0.0 | 0.00 | 0.00 | 0.00 | 63 | 1007.0 |
| 20260902123057 | 13 | 0 | 0.0 | 0.0 | 0.00 | 0.00 | 0.00 | 62 | 1007.0 |
| 20260902121608 | 12 | 0 | 0.0 | 8.0 | 0.00 | 0.00 | 0.00 | 63 | 1006.8 |
| 20260902120051 | 13 | 238 | 4.8 | 8.0 | 0.00 | 0.00 | 0.00 | 62 | 1006.7 |
| 20260902114622 | 13 | 236 | 3.2 | 6.4 | 0.00 | 0.00 | 0.00 | 60 | 1006.9 |
| 20260902113107 | 13 | 236 | 8.0 | 16.1 | 0.00 | 0.00 | 0.00 | 60 | 1007.2 |
| 20260902111604 | 12 | 171 | 4.8 | 9.7 | 0.00 | 0.00 | 0.00 | 64 | 1007.3 |
| 20260902110118 | 12 | 167 | 6.4 | 12.9 | 0.00 | 0.00 | 0.00 | 67 | 1007.5 |
| 20260902104602 | 11 | 130 | 4.8 | 11.3 | 0.00 | 0.00 | 0.00 | 72 | 1007.5 |
| 20260902103059 | 8 | 111 | 4.8 | 9.7 | 0.00 | 0.00 | 0.00 | 76 | 1007.8 |
| 20260902101601 | 8 | 0 | 0.0 | 0.0 | 0.00 | 0.00 | 0.00 | 74 | 1007.4 |
| 20260902100112 | 8 | 0 | 0.0 | 0.0 | 0.00 | 0.00 | 0.00 | 72 | 1007.4 |
| 20260902094558 | 9 | 0 | 0.0 | 3.2 | 0.00 | 0.00 | 0.00 | 70 | 1007.5 |
| 20260902093055 | 9 | 107 | 0.0 | 4.8 | 0.00 | 0.00 | 0.00 | 70 | 1007.3 |
| 20260902091555 | 10 | 0 | 0.0 | 3.2 | 0.00 | 0.00 | 0.00 | 68 | 1007.4 |
| 20260902090059 | 10 | 107 | 1.6 | 11.3 | 0.00 | 0.00 | 0.00 | 67 | 1007.4 |
| 20260902084617 | 10 | 113 | 4.8 | 9.7 | 0.00 | 0.00 | 0.00 | 65 | 1007.7 |
| 20260902083052 | 11 | 113 | 3.2 | 4.8 | 0.00 | 0.00 | 0.00 | 63 | 1007.7 |
| 20260902081601 | 11 | 113 | 1.6 | 6.4 | 0.00 | 0.00 | 0.00 | 60 | 1007.8 |
| 20260902080059 | 13 | 113 | 3.2 | 6.4 | 0.00 | 0.00 | 0.00 | 57 | 1007.9 |
| 20260902074553 | 13 | 0 | 0.0 | 0.0 | 0.00 | 0.00 | 0.00 | 55 | 1007.8 |
| 20260902073054 | 15 | 0 | 0.0 | 3.2 | 0.00 | 0.00 | 0.00 | 52 | 1007.8 |
| 20260902071605 | 15 | 113 | 3.2 | 4.8 | 0.00 | 0.00 | 0.00 | 51 | 1007.7 |
| 20260902070058 | 16 | 113 | 3.2 | 6.4 | 0.00 | 0.00 | 0.00 | 48 | 1007.6 |
| 20260902064602 | 17 | 113 | 0.0 | 4.8 | 0.00 | 0.00 | 0.00 | 46 | 1007.7 |
| 20260902063102 | 17 | 113 | 3.2 | 12.9 | 0.00 | 0.00 | 0.00 | 45 | 1007.9 |
| 20260902060106 | 17 | 0 | 0.0 | 4.8 | 0.00 | 0.00 | 0.00 | 46 | 1008.1 |
| 20260902054553 | 17 | 119 | 3.2 | 12.9 | 0.00 | 0.00 | 0.00 | 47 | 1008.0 |
| 20260902053059 | 16 | 0 | 1.6 | 4.8 | 0.00 | 0.00 | 0.00 | 49 | 1008.2 |
| 20260902051553 | 16 | 119 | 3.2 | 6.4 | 0.00 | 0.00 | 0.00 | 50 | 1008.1 |
| 20260902050121 | 15 | 0 | 0.0 | 0.0 | 0.00 | 0.00 | 0.00 | 50 | 1008.0 |
| 20260902044559 | 15 | 0 | 0.0 | 3.2 | 0.00 | 0.00 | 0.00 | 49 | 1007.9 |
| 20260902043104 | 16 | 119 | 0.0 | 3.2 | 0.00 | 0.00 | 0.00 | 47 | 1008.1 |
| 20260902041552 | 16 | 0 | 0.0 | 3.2 | 0.00 | 0.00 | 0.00 | 47 | 1008.1 |
| 20260902040054 | 17 | 0 | 0.0 | 0.0 | 0.00 | 0.00 | 0.00 | 42 | 1008.1 |
| 20260902034604 | 17 | 0 | 0.0 | 3.2 | 0.00 | 0.00 | 0.00 | 41 | 1008.3 |
| 20260902033056 | 17 | 0 | 0.0 | 0.0 | 0.00 | 0.00 | 0.00 | 40 | 1008.3 |
| 20260902031554 | 19 | 119 | 1.6 | 4.8 | 0.00 | 0.00 | 0.00 | 37 | 1008.3 |
| 20260902030052 | 19 | 119 | 4.8 | 9.7 | 0.00 | 0.00 | 0.00 | 37 | 1008.3 |
| 20260902024555 | 18 | 0 | 0.0 | 0.0 | 0.00 | 0.00 | 0.00 | 36 | 1008.1 |
| 20260902023055 | 19 | 0 | 0.0 | 0.0 | 0.00 | 0.00 | 0.00 | 35 | 1008.1 |
| 20260902021551 | 20 | 0 | 0.0 | 4.8 | 0.00 | 0.00 | 0.00 | 33 | 1008.1 |
| 20260902020057 | 21 | 0 | 0.0 | 0.0 | 0.00 | 0.00 | 0.00 | 32 | 1008.2 |
| 20260902014552 | 23 | 119 | 1.6 | 4.8 | 0.00 | 0.00 | 0.00 | 28 | 1008.1 |
| 20260902013051 | 26 | 119 | 1.6 | 9.7 | 0.00 | 0.00 | 0.00 | 25 | 1008.1 |
| 20260902011601 | 26 | 119 | 8.0 | 14.5 | 0.00 | 0.00 | 0.00 | 24 | 1008.2 |
| 20260902010105 | 27 | 117 | 8.0 | 16.1 | 0.00 | 0.00 | 0.00 | 24 | 1008.2 |
| 20260902004553 | 27 | 119 | 12.9 | 20.9 | 0.00 | 0.00 | 0.00 | 24 | 1008.2 |
| 20260902003101 | 27 | 146 | 11.3 | 19.3 | 0.00 | 0.00 | 0.00 | 24 | 1008.2 |
| 20260902001610 | 27 | 140 | 16.1 | 25.7 | 0.00 | 0.00 | 0.00 | 24 | 1008.2 |
| 20260902000056 | 28 | 144 | 12.9 | 20.9 | 0.00 | 0.00 | 0.00 | 21 | 1008.3 |